[[{"header":{"parameterUnit":"m.s-1","parameterCategory":1,"la1":30.2991,"la2":30.254,"lo1":-89.0895,"lo2":-89.0444,"dy":0.0017,"dx":0.0017,"nx":28,"ny":28,"refTime":"2024-03-17T03:00:00:Z","depth":0,"parameterNumber":2,"parameterNumberName":"U-component_of_WINDS"},"data":[0,0,0,0,0,0,0,0,0,0,0,0,0,0,0,0,0,0,0,0,0,0,0,0,0,0,0,0,0,0,0,0,0,0,0,0,0,0,0,0,0,0,0,0,0,0,0,0,0,0,0,0,0,0,0,0,0,0,-0.3705,-0.3704,0,-0.3643,-0.3642,-0.3641,-0.3618,-0.3618,-0.3618,-0.3618,-0.3553,-0.3552,-0.355,0,0,0,0,0,0,0,0,0,0,0,0,0,-0.3803,-0.3801,-0.3705,-0.3704,-0.3704,-0.3643,-0.3642,-0.3641,-0.3618,-0.3618,-0.3618,-0.3619,-0.3554,-0.3552,-0.355,0,0,0,0,0,0,0,0,0,0,0,0,0,-0.3753,-0.3801,-0.3705,-0.3685,-0.3682,-0.3643,-0.3642,-0.3641,-0.3618,-0.3618,-0.3618,-0.3619,-0.3555,-0.3552,-0.3549,-0.3526,0,0,-0.3541,-0.3539,0,0,0,0,0,0,0,0,-0.3755,-0.3749,-0.3688,-0.3686,-0.3683,-0.3638,-0.3653,-0.3602,-0.3618,-0.3642,-0.3618,-0.3619,-0.3581,-0.3576,-0.3564,-0.3523,-0.352,-0.354,-0.3539,-0.3537,-0.3536,0,0,0,0,0,0,0,-0.3759,-0.3751,-0.368,-0.3688,-0.3684,-0.3678,-0.3671,-0.3643,-0.3611,-0.364,-0.3638,-0.3631,-0.358,-0.3567,-0.3562,-0.3519,-0.354,-0.3538,-0.3536,-0.3535,-0.3455,-0.3455,0,0,0,0,0,0,-0.3766,-0.3755,-0.3682,-0.3679,-0.3721,-0.3676,-0.3669,-0.3653,-0.3611,-0.3605,-0.3631,-0.363,-0.3572,-0.3566,-0.356,-0.353,-0.3537,-0.3535,-0.3533,-0.3456,-0.3455,-0.3455,0,0,0,0,0,0,-0.3768,-0.376,-0.3685,-0.3716,-0.3706,-0.3674,-0.3656,-0.3651,-0.3638,-0.3604,-0.3598,-0.3624,-0.3572,-0.3564,-0.3535,-0.3527,-0.3533,-0.3531,-0.3456,-0.3456,-0.3455,-0.347,0,0,0,0,0,0,-0.3771,-0.3761,-0.3752,-0.3716,-0.3705,-0.3661,-0.3656,-0.365,-0.3633,-0.3632,-0.3596,-0.359,-0.3571,-0.3539,-0.3532,-0.3523,-0.3528,-0.3457,-0.3456,-0.3455,-0.347,-0.347,-0.3469,0,0,0,0,0,-0.3775,-0.3758,-0.3751,-0.3743,-0.3693,-0.3661,-0.3654,-0.3633,-0.3633,-0.3623,-0.3602,-0.3591,-0.3529,-0.3536,-0.3528,-0.3519,-0.3457,-0.3456,-0.3455,-0.347,-0.347,-0.3469,0,0,0,0,0,0,-0.3793,-0.3753,-0.3745,-0.3717,-0.3692,-0.3657,-0.3644,-0.3634,-0.3609,-0.3608,-0.3583,-0.3575,-0.3548,-0.353,-0.3538,-0.3494,-0.3492,-0.349,-0.3506,-0.3506,-0.3506,-0.3511,-0.3526,0,0,0,0,0,-0.3794,-0.3772,-0.3738,-0.3716,-0.3704,-0.3676,-0.3661,-0.3647,-0.3621,-0.3611,-0.3587,-0.3561,-0.3536,-0.352,-0.3495,-0.3467,-0.3459,-0.3456,-0.3456,-0.3457,-0.3455,-0.3438,-0.3437,-0.3452,-0.3452,-0.3452,0,0,-0.3795,-0.3771,-0.3758,-0.3719,-0.3698,-0.3675,-0.3668,-0.3644,-0.3627,-0.3607,-0.3578,-0.3559,-0.3529,-0.3501,-0.3487,-0.3485,-0.3449,-0.3455,-0.3456,-0.3454,-0.3437,-0.3436,-0.3435,-0.3451,-0.3452,-0.3452,0,0,-0.3786,-0.3765,-0.3745,-0.3724,-0.3694,-0.3675,-0.3671,-0.3637,-0.3624,-0.3594,-0.3579,-0.3558,-0.3515,-0.3494,-0.3478,-0.3461,-0.3451,-0.3454,-0.3454,-0.3438,-0.3437,-0.3436,-0.343,-0.3428,-0.3452,-0.3452,-0.3452,0,-0.3792,-0.3757,-0.3735,-0.3712,-0.3696,-0.3677,-0.3656,-0.3637,-0.36,-0.3588,-0.3587,-0.3533,-0.3512,-0.3478,-0.3474,-0.3461,-0.3455,-0.3458,-0.3439,-0.3438,-0.3436,-0.343,-0.3428,-0.3453,-0.3453,-0.3453,-0.3452,0,-0.3765,-0.3741,-0.3728,-0.3693,-0.3675,-0.3653,-0.3628,-0.3612,-0.3599,-0.3581,-0.3551,-0.3525,-0.3494,-0.3485,-0.3473,-0.3449,-0.3449,-0.3444,-0.3442,-0.3436,-0.343,-0.3427,-0.3454,-0.3453,-0.3453,-0.3453,0,0,-0.3766,-0.3719,-0.3715,-0.3698,-0.3663,-0.3644,-0.3622,-0.3592,-0.3579,-0.3553,-0.3534,-0.3498,-0.3493,-0.3474,-0.3459,-0.3446,-0.3434,-0.3442,-0.3441,-0.3441,-0.3407,-0.3411,-0.3409,-0.3427,-0.3427,-0.3426,-0.341,0,-0.3752,-0.3711,-0.3691,-0.3658,-0.3636,-0.3618,-0.3598,-0.3574,-0.3557,-0.3535,-0.3515,-0.349,-0.3485,-0.3474,-0.346,-0.3439,-0.3427,-0.344,-0.3408,-0.3407,-0.3416,-0.3406,-0.341,-0.3396,-0.3407,-0.3407,-0.3406,0,-0.373,-0.3706,-0.3671,-0.3638,-0.3628,-0.3611,-0.3582,-0.3562,-0.3534,-0.3522,-0.3502,-0.3488,-0.3463,-0.3463,-0.3428,-0.3437,-0.3423,-0.341,-0.3409,-0.3405,-0.3406,-0.3402,-0.3391,-0.3389,-0.3402,-0.3403,-0.3403,0,-0.3734,-0.3692,-0.3666,-0.3653,-0.3614,-0.3602,-0.3586,-0.3559,-0.3542,-0.3517,-0.3506,-0.3478,-0.3463,-0.3441,-0.342,-0.3422,-0.3387,-0.3385,-0.3376,-0.3377,-0.3369,-0.337,-0.3356,-0.336,-0.3361,-0.3361,-0.3361,0,-0.3721,-0.37,-0.3667,-0.3651,-0.3628,-0.3605,-0.3582,-0.3564,-0.354,-0.352,-0.3503,-0.3484,-0.3457,-0.3434,-0.3417,-0.3391,-0.3384,-0.3374,-0.3369,-0.3375,-0.3376,-0.3365,-0.3366,-0.336,-0.336,-0.336,-0.336,0,-0.3721,-0.3698,-0.3669,-0.3635,-0.3626,-0.361,-0.3581,-0.3564,-0.3546,-0.3521,-0.3513,-0.3485,-0.3458,-0.3434,-0.3398,-0.3387,-0.336,-0.3354,-0.3369,-0.3367,-0.3359,-0.336,-0.3337,-0.3333,-0.3341,-0.334,-0.334,0,-0.3714,-0.3698,-0.3662,-0.3648,-0.3632,-0.3608,-0.3592,-0.3568,-0.3552,-0.3519,-0.3507,-0.3479,-0.3455,-0.3413,-0.3388,-0.3361,-0.3355,-0.3348,-0.335,-0.3357,-0.3354,-0.3356,-0.3354,-0.3349,-0.3349,-0.3349,-0.3349,0,-0.3704,-0.3693,-0.367,-0.3643,-0.3623,-0.3601,-0.3577,-0.3566,-0.3539,-0.3521,-0.3493,-0.3475,-0.3439,-0.3411,-0.3381,-0.3363,-0.3351,-0.3348,-0.3345,-0.335,-0.336,-0.3354,-0.3369,-0.3349,-0.3349,-0.3349,-0.3349,-0.3349,-0.37,-0.3685,-0.3658,-0.3632,-0.3612,-0.3591,-0.3574,-0.3554,-0.3531,-0.35,-0.3487,-0.3459,-0.3432,-0.339,-0.3373,-0.335,-0.3348,-0.3343,-0.3342,-0.3341,-0.3342,-0.3363,-0.3345,-0.3345,-0.3345,-0.3345,-0.3345,0,-0.3689,-0.3671,-0.3647,-0.3616,-0.3596,-0.3587,-0.356,-0.3544,-0.352,-0.3496,-0.3473,-0.3441,-0.3414,-0.3388,-0.336,-0.3347,-0.334,-0.334,-0.3341,-0.3337,-0.3345,-0.3351,-0.3345,-0.3345,-0.3345,-0.3345,-0.3345,-0.3345,-0.3681,-0.3655,-0.3641,-0.3605,-0.3587,-0.3559,-0.3545,-0.3525,-0.3506,-0.3472,-0.3449,-0.3432,-0.3407,-0.3377,-0.3352,-0.3345,-0.3335,-0.3336,-0.3327,-0.3336,-0.3336,-0.3336,-0.3342,-0.3334,-0.3334,-0.3321,-0.332,-0.332]},{"header":{"parameterUnit":"m.s-1","parameterCategory":1,"la1":30.2991,"la2":30.254,"lo1":-89.0895,"lo2":-89.0444,"dy":0.0017,"dx":0.0017,"nx":28,"ny":28,"refTime":"2024-03-17T03:00:00:Z","depth":0,"parameterNumber":3,"parameterNumberName":"V-component_of_WINDS"},"data":[0,0,0,0,0,0,0,0,0,0,0,0,0,0,0,0,0,0,0,0,0,0,0,0,0,0,0,0,0,0,0,0,0,0,0,0,0,0,0,0,0,0,0,0,0,0,0,0,0,0,0,0,0,0,0,0,0,0,-0.041,-0.041,0,-0.0434,-0.0434,-0.0434,-0.0459,-0.046,-0.046,-0.046,-0.0484,-0.0484,-0.0485,0,0,0,0,0,0,0,0,0,0,0,0,0,-0.0387,-0.0387,-0.041,-0.041,-0.0411,-0.0434,-0.0434,-0.0434,-0.0459,-0.046,-0.046,-0.046,-0.0484,-0.0484,-0.0485,0,0,0,0,0,0,0,0,0,0,0,0,0,-0.0402,-0.0387,-0.041,-0.0426,-0.0428,-0.0434,-0.0434,-0.0434,-0.0459,-0.046,-0.046,-0.0461,-0.0484,-0.0484,-0.0485,-0.0477,0,0,-0.0486,-0.0486,0,0,0,0,0,0,0,0,-0.0401,-0.0403,-0.0423,-0.0425,-0.0427,-0.0444,-0.0434,-0.0449,-0.0459,-0.0447,-0.046,-0.0461,-0.047,-0.0472,-0.0475,-0.0478,-0.0479,-0.0486,-0.0487,-0.0487,-0.0487,0,0,0,0,0,0,0,-0.04,-0.0402,-0.0419,-0.0423,-0.0426,-0.0432,-0.0435,-0.0437,-0.0455,-0.0448,-0.045,-0.0452,-0.0471,-0.0475,-0.0476,-0.048,-0.0486,-0.0487,-0.0487,-0.0487,-0.0477,-0.0477,0,0,0,0,0,0,-0.0397,-0.0401,-0.0419,-0.042,-0.0415,-0.0432,-0.0435,-0.0438,-0.0455,-0.0459,-0.0452,-0.0454,-0.0474,-0.0475,-0.0477,-0.0469,-0.0487,-0.0487,-0.0487,-0.0478,-0.0477,-0.0477,0,0,0,0,0,0,-0.0396,-0.0398,-0.0418,-0.0411,-0.0414,-0.0432,-0.0435,-0.0438,-0.0441,-0.0458,-0.0462,-0.0452,-0.0474,-0.0476,-0.0477,-0.047,-0.0487,-0.0488,-0.0478,-0.0478,-0.0477,-0.0453,0,0,0,0,0,0,-0.0395,-0.0398,-0.0395,-0.0411,-0.0414,-0.0417,-0.0434,-0.0438,-0.0442,-0.0444,-0.0459,-0.0462,-0.0475,-0.0476,-0.0477,-0.0471,-0.0488,-0.0479,-0.0478,-0.0477,-0.0454,-0.0451,-0.0448,0,0,0,0,0,-0.0394,-0.0387,-0.0395,-0.0397,-0.0411,-0.0417,-0.0419,-0.0433,-0.0442,-0.0439,-0.045,-0.0462,-0.0471,-0.0476,-0.0477,-0.0471,-0.048,-0.0478,-0.0477,-0.0455,-0.0452,-0.0448,0,0,0,0,0,0,-0.037,-0.0389,-0.0398,-0.0396,-0.0404,-0.0421,-0.0418,-0.0429,-0.0435,-0.0437,-0.0455,-0.0458,-0.0456,-0.0464,-0.0469,-0.0465,-0.0477,-0.0476,-0.046,-0.0456,-0.0453,-0.0451,-0.0489,0,0,0,0,0,-0.0364,-0.0367,-0.0384,-0.038,-0.0384,-0.04,-0.0403,-0.0414,-0.0423,-0.0427,-0.0438,-0.0447,-0.0452,-0.0454,-0.046,-0.0455,-0.0459,-0.0452,-0.0449,-0.0447,-0.0445,-0.0444,-0.0441,-0.0473,-0.0473,-0.0473,0,0,-0.0352,-0.0363,-0.0364,-0.0376,-0.0384,-0.0386,-0.0403,-0.0405,-0.0407,-0.0427,-0.0429,-0.0437,-0.0448,-0.0446,-0.0446,-0.0452,-0.0437,-0.0445,-0.0443,-0.0443,-0.0442,-0.0439,-0.0436,-0.0472,-0.0472,-0.0472,0,0,-0.0332,-0.0341,-0.0339,-0.0346,-0.0358,-0.0369,-0.0368,-0.0383,-0.039,-0.0391,-0.0406,-0.0409,-0.0417,-0.0424,-0.0429,-0.0411,-0.0423,-0.0413,-0.0398,-0.0396,-0.0393,-0.0391,-0.0384,-0.0382,-0.0412,-0.0412,-0.0411,0,-0.0316,-0.032,-0.0336,-0.0337,-0.0342,-0.036,-0.0358,-0.0365,-0.0378,-0.038,-0.0388,-0.0398,-0.0407,-0.0406,-0.0402,-0.0405,-0.0405,-0.0411,-0.0392,-0.039,-0.0388,-0.0382,-0.038,-0.041,-0.041,-0.0411,-0.0411,0,-0.0299,-0.0302,-0.0299,-0.0311,-0.0315,-0.0315,-0.033,-0.0333,-0.0343,-0.0353,-0.0354,-0.0365,-0.0373,-0.0374,-0.0384,-0.0375,-0.0379,-0.0389,-0.0402,-0.0384,-0.0378,-0.0376,-0.0408,-0.0409,-0.0409,-0.041,0,0,-0.0264,-0.0285,-0.0283,-0.0289,-0.0304,-0.0306,-0.0306,-0.0314,-0.0316,-0.0324,-0.0324,-0.0331,-0.034,-0.0345,-0.0356,-0.0355,-0.034,-0.0365,-0.0365,-0.0359,-0.033,-0.0322,-0.0319,-0.0347,-0.0347,-0.0347,-0.0329,0,-0.0246,-0.0247,-0.0262,-0.0259,-0.0262,-0.028,-0.028,-0.0289,-0.0298,-0.0302,-0.0312,-0.0316,-0.0328,-0.0332,-0.0331,-0.0342,-0.0334,-0.0343,-0.0348,-0.0348,-0.0344,-0.0317,-0.0308,-0.0291,-0.0327,-0.0327,-0.0327,0,-0.0225,-0.0232,-0.0229,-0.0244,-0.0246,-0.0246,-0.0254,-0.0257,-0.0268,-0.0275,-0.028,-0.0293,-0.0294,-0.0306,-0.0308,-0.0314,-0.0317,-0.0322,-0.0322,-0.0323,-0.0336,-0.0316,-0.0286,-0.0283,-0.0324,-0.0324,-0.0324,0,-0.0198,-0.0208,-0.0207,-0.0212,-0.0229,-0.0228,-0.0235,-0.0246,-0.025,-0.0257,-0.026,-0.0267,-0.0271,-0.0276,-0.029,-0.0298,-0.029,-0.0304,-0.0296,-0.0295,-0.0293,-0.0293,-0.0263,-0.0296,-0.0296,-0.0296,-0.0296,0,-0.0176,-0.0174,-0.0196,-0.0195,-0.0193,-0.021,-0.0207,-0.0216,-0.0226,-0.0228,-0.0244,-0.0245,-0.0264,-0.0267,-0.0278,-0.0278,-0.0279,-0.0285,-0.0288,-0.0283,-0.0282,-0.0285,-0.0286,-0.0295,-0.0295,-0.0295,-0.0295,0,-0.0146,-0.0161,-0.0162,-0.0178,-0.0182,-0.0179,-0.0193,-0.0194,-0.0204,-0.0206,-0.0208,-0.0224,-0.0229,-0.0244,-0.0252,-0.0259,-0.0256,-0.0261,-0.0252,-0.0254,-0.0245,-0.0245,-0.0215,-0.0211,-0.0247,-0.0246,-0.0246,0,-0.0131,-0.013,-0.0146,-0.0148,-0.0155,-0.0158,-0.0162,-0.0179,-0.0182,-0.0194,-0.0193,-0.0199,-0.0205,-0.0211,-0.0224,-0.0231,-0.0236,-0.0225,-0.0237,-0.0233,-0.0236,-0.0235,-0.0235,-0.0222,-0.0222,-0.0221,-0.0221,0,-0.0102,-0.0109,-0.0115,-0.0122,-0.0126,-0.0133,-0.0141,-0.0142,-0.016,-0.0163,-0.0168,-0.0173,-0.0181,-0.0187,-0.0196,-0.0203,-0.0215,-0.0217,-0.0216,-0.0211,-0.0205,-0.0208,-0.0244,-0.0218,-0.0218,-0.0218,-0.0219,-0.0219,-0.0079,-0.0078,-0.009,-0.0095,-0.0102,-0.0109,-0.011,-0.0121,-0.0125,-0.0134,-0.0143,-0.0147,-0.0158,-0.0171,-0.0177,-0.018,-0.0187,-0.0185,-0.0184,-0.0183,-0.0181,-0.0205,-0.0182,-0.0182,-0.0182,-0.0183,-0.0183,0,-0.005,-0.0059,-0.0063,-0.0073,-0.0077,-0.0089,-0.0098,-0.01,-0.0103,-0.0112,-0.0118,-0.0124,-0.0129,-0.0142,-0.0149,-0.0149,-0.0155,-0.0151,-0.015,-0.0152,-0.0175,-0.0175,-0.0146,-0.0146,-0.0146,-0.0146,-0.0146,-0.0146,-0.0036,-0.0036,-0.0044,-0.0048,-0.0056,-0.006,-0.0064,-0.0071,-0.0078,-0.0084,-0.0089,-0.0097,-0.0108,-0.0116,-0.0121,-0.0125,-0.0127,-0.012,-0.0126,-0.0147,-0.015,-0.0154,-0.0154,-0.0121,-0.0121,-0.0103,-0.0102,-0.0102]}]]